Vertical_Velocity
0 -1 -1 -1 -1 -1 -0 0 -1 0 -1 -0 0 1 -0 1 -0 -0 0 0 -0 -1 -0 0 0 1 1 2 0 -0 1 1 -0 -0 -1 -0 0 0 -0 -0 -0 -1 -1
-2 -2 -2 -1 0 -1 1 1 -0 -1 -1 -2 -1 -1 -0 -0 -1 0 0 0 -0 0 0 -0 0 -1 -1 0 1 0 0 0 1 -1 -1 -2 -0 0 1 -0 -0 -0 0
-0 -1 0 -1 0 1 -2 -4 -1 -1 -0 0 -1 -0 0 0 0 0 0 0 1 1 -0 -0 -0 0 0 0 0 1 1 0 0 1 1 -0 -2 0 0 0 1 0 0
0 0 -0 -1 -3 -2 0 0 0 -0 -1 -1 -1 -0 0 0 0 0 0 0 -0 -0 -0 -0 -1 -1 -0 0 0 0 0 1 0 -1 -0 2 0 -2 -1 0 0 0 1
0 -2 -1 -1 -1 -2 -1 -2 -2 -3 -3 0 -1 -2 -1 -1 0 1 -0 -0 -1 -0 1 -0 0 -1 -1 -0 -1 -0 1 0 0 1 -1 -1 0 1 -1 -1 -1 -0 -0
0 0 -1 -1 -0 -1 -1 -1 -1 -2 -3 -4 -1 -0 -1 -2 -1 -1 -0 -0 1 -0 -1 -1 -1 -0 0 -1 0 1 -0 0 0 0 0 1 2 -1 -0 -1 -1 -1 -1
0 -0 -0 -0 -0 -0 -0 1 -1 -1 -1 -1 -2 -2 -1 -0 -1 -1 -1 -3 -1 -0 0 -0 -0 -0 -1 -1 -1 -0 0 -1 1 1 0 2 1 2 2 0 -1 -0 -0
0 0 -1 -0 -0 0 -1 -2 -0 -1 -0 -2 -1 -1 1 -1 1 -1 0 1 -1 -1 -0 0 -1 -0 -1 -1 0 -0 -1 -1 -1 -1 1 0 1 2 1 2 2 1 1
-0 -1 -1 -1 -1 -1 -1 -1 -1 0 0 1 -0 -0 -1 -0 -2 1 1 -1 -1 0 -1 0 0 -1 -0 -0 -1 -0 0 0 -1 -0 -1 0 -2 -0 1 1 0 0 1
0 -1 -0 -0 -1 -2 -1 -2 -1 -1 -1 -1 -1 -1 -0 -1 -1 -1 -0 1 1 1 -1 -0 -1 -0 -2 -1 -1 -1 -1 0 1 -0 -1 0 -1 0 -0 -0 -0 0 -0
-1 -1 -1 -1 -1 0 -1 -1 -1 -0 -1 -1 -1 0 -1 -1 -1 0 -2 -1 1 1 0 -0 0 2 2 1 -1 -1 0 -1 1 0 1 1 -0 -1 0 -0 0 1 1
-3 -3 -1 -2 -2 -1 -1 -1 -1 -1 -1 -1 -0 -0 0 -1 -1 -1 -0 -1 -1 -1 0 0 1 -1 2 1 1 -0 -0 -2 -0 0 0 1 1 1 1 1 1 1 1
-2 -2 -2 -1 -1 -1 -1 -1 -2 -2 -2 -1 -0 -1 -1 -0 0 -1 -0 -1 -1 -1 -1 -2 -2 0 0 -0 -1 2 -2 -1 0 -1 1 2 -1 -0 0 1 1 1 1
-1 -0 -1 -1 -0 -0 -0 -0 -0 -1 -1 -1 -1 -1 -0 -0 0 -1 0 -1 -1 -2 0 -1 -1 -1 -1 -1 -0 -1 1 1 -1 -0 -1 0 -0 2 1 -0 -0 1 2
-0 0 -0 -1 -1 -1 -0 -0 -1 -1 -0 -0 -1 -2 -2 -1 -0 -1 1 1 -1 -2 -2 -0 -1 -1 -2 0 -1 -1 -0 1 -0 -1 0 0 -3 -2 0 1 1 1 1
-0 0 -1 -1 -1 -1 -1 -1 -0 -0 -0 0 0 1 -1 -0 1 -1 -0 -1 1 -1 1 -1 -1 -1 1 -1 -1 -1 0 -1 1 -0 0 0 3 -3 -0 -1 -1 -1 -0
-1 -1 -1 -3 -0 -0 -2 -3 -3 -2 -2 -2 -1 -0 0 0 -0 -1 -0 -1 -1 -3 -1 -0 2 -1 0 -0 -0 0 -0 -1 -1 -0 2 0 -1 5 -1 -0 1 1 -0
-1 -2 -1 -0 -0 0 -0 -0 -1 -1 -1 -3 -4 -2 -2 -1 -1 -0 0 1 0 -1 -2 0 2 -0 -0 -3 2 2 -1 -1 1 -1 -2 2 1 -1 4 -1 -1 1 0
-1 -2 0 -1 -2 -1 -4 -3 -3 -2 -2 -2 -2 -2 -2 -2 -1 0 1 3 2 1 -0 -0 1 -2 -1 1 -3 -0 2 2 0 0 2 -1 -1 3 1 1 2 -3 -1
-2 -2 -4 -5 -4 -3 -2 -3 -2 -2 -2 -1 -2 -2 -3 -2 -2 -2 -1 1 2 0 1 1 -0 1 -1 0 0 -2 1 2 2 1 0 0 3 -1 -1 0 -1 4 -1
-4 -3 -2 -2 -2 -1 -0 -1 -3 -4 -2 -2 -2 -2 -2 -3 -1 -4 1 -1 -1 2 2 2 1 1 4 0 -2 3 -0 -0 1 1 2 1 -2 1 -3 -3 1 -2 3
-2 -3 -2 -2 -1 -1 -1 -1 -1 -2 -5 -0 -1 -3 -1 -2 -2 -1 -1 -2 -2 -1 -1 2 1 -0 1 4 0 -3 5 5 4 -1 -3 3 5 -1 3 0 -4 1 1
-1 -1 -1 -1 -2 -2 -2 -1 -2 -1 -1 -2 -2 0 -0 1 -2 -3 -2 -1 -1 -3 -3 -2 0 -1 1 -2 -2 -2 1 -1 -2 5 -3 -3 2 -1 0 1 -0 -5 0
-0 -1 -2 -3 -3 -1 -2 -2 -1 -0 -2 -4 -5 -6 -6 -3 -2 -1 -1 -2 -0 -2 -0 1 -1 -0 -3 2 2 1 -1 1 0 5 1 2 -4 5 1 5 -1 -2 2
-3 -2 -2 -1 -2 -2 -2 -2 -1 -1 -2 -0 -1 -1 -2 -4 -1 0 1 1 -0 -1 -1 -1 -2 -2 -2 0 -3 2 -0 -0 -3 -9 3 16 -1 -0 2 2 4 -1 2
-0 -1 -2 -1 -1 -2 -2 -1 -2 -1 -0 -1 -3 -3 -3 -2 -2 -0 1 0 -0 0 -1 -1 -0 -1 -1 -2 -1 -2 -1 -3 4 -3 -10 -6 -6 12 -1 -3 -1 5 -3
Height
5877 5877 5878 5878 5878 5878 5878 5878 5878 5878 5878 5878 5878 5878 5879 5879 5879 5879 5879 5879 5878 5878 5877 5877 5876 5876 5876 5876 5875 5875 5874 5874 5874 5874 5873 5873 5873 5873 5873 5873 5873 5873 5874
5877 5877 5877 5877 5878 5878 5878 5877 5878 5878 5878 5877 5877 5877 5877 5878 5878 5878 5878 5877 5877 5877 5876 5876 5876 5875 5875 5875 5874 5874 5873 5873 5873 5872 5872 5872 5872 5872 5872 5873 5873 5873 5873
5876 5876 5877 5876 5877 5877 5877 5877 5877 5877 5876 5876 5876 5876 5876 5876 5876 5876 5876 5876 5875 5875 5875 5875 5874 5874 5874 5873 5873 5873 5873 5872 5872 5871 5871 5871 5871 5871 5871 5871 5871 5872 5872
5875 5875 5875 5876 5876 5876 5876 5876 5876 5876 5876 5875 5875 5875 5875 5874 5874 5873 5873 5873 5873 5872 5872 5872 5872 5872 5872 5871 5871 5871 5871 5871 5871 5870 5869 5869 5869 5869 5869 5869 5869 5869 5869
5873 5873 5874 5875 5874 5874 5874 5875 5875 5874 5874 5874 5874 5873 5873 5873 5872 5872 5871 5870 5869 5869 5869 5869 5868 5868 5869 5869 5868 5868 5868 5868 5868 5868 5868 5867 5867 5867 5866 5867 5867 5867 5867
5871 5871 5872 5872 5873 5872 5873 5873 5872 5872 5872 5872 5872 5871 5871 5870 5870 5869 5869 5868 5868 5867 5866 5865 5865 5864 5865 5865 5865 5864 5864 5864 5865 5865 5865 5864 5865 5864 5864 5864 5864 5864 5864
5868 5869 5870 5870 5870 5870 5870 5870 5870 5870 5869 5869 5869 5868 5867 5866 5866 5866 5866 5865 5865 5864 5863 5862 5861 5861 5860 5860 5861 5860 5860 5860 5860 5860 5860 5861 5860 5860 5860 5860 5860 5860 5860
5865 5866 5866 5867 5867 5867 5867 5867 5866 5866 5866 5865 5865 5864 5863 5862 5861 5861 5861 5861 5860 5860 5859 5858 5857 5857 5856 5856 5856 5856 5855 5855 5855 5855 5855 5855 5856 5856 5855 5855 5855 5855 5855
5861 5862 5863 5863 5863 5863 5862 5862 5862 5861 5861 5860 5859 5859 5858 5857 5857 5856 5856 5855 5855 5855 5855 5854 5853 5852 5852 5851 5851 5851 5851 5850 5850 5849 5849 5850 5850 5850 5850 5850 5850 5850 5850
5858 5858 5858 5859 5859 5858 5857 5856 5856 5855 5854 5854 5853 5853 5852 5851 5850 5850 5849 5848 5848 5848 5848 5847 5847 5847 5846 5846 5845 5845 5845 5844 5844 5844 5844 5844 5844 5844 5844 5845 5845 5845 5845
5854 5854 5854 5853 5853 5853 5852 5851 5850 5849 5848 5847 5846 5846 5844 5844 5843 5842 5841 5841 5840 5840 5839 5840 5839 5839 5839 5839 5838 5838 5839 5838 5838 5838 5838 5837 5837 5837 5837 5838 5838 5838 5839
5850 5849 5848 5848 5847 5846 5845 5844 5843 5842 5841 5840 5839 5839 5838 5837 5836 5835 5834 5834 5833 5833 5832 5832 5831 5831 5831 5831 5831 5830 5831 5830 5831 5831 5831 5831 5831 5830 5830 5830 5831 5831 5832
5844 5843 5842 5841 5840 5840 5839 5838 5836 5836 5835 5834 5833 5832 5832 5832 5831 5830 5829 5828 5827 5826 5826 5825 5824 5824 5823 5823 5823 5823 5823 5822 5822 5823 5823 5824 5823 5823 5823 5823 5823 5823 5824
5837 5837 5836 5835 5834 5834 5833 5831 5830 5830 5829 5829 5828 5827 5827 5826 5825 5824 5824 5822 5821 5820 5820 5818 5817 5816 5815 5814 5814 5814 5814 5815 5814 5814 5814 5815 5815 5816 5815 5815 5816 5816 5816
5831 5831 5831 5830 5830 5829 5828 5827 5826 5825 5824 5823 5822 5821 5820 5819 5818 5817 5816 5816 5814 5813 5812 5811 5810 5809 5808 5807 5806 5805 5805 5805 5806 5805 5806 5806 5806 5805 5807 5807 5807 5808 5808
5826 5826 5826 5826 5825 5825 5824 5822 5821 5819 5818 5817 5815 5814 5812 5811 5811 5809 5808 5807 5806 5805 5803 5802 5801 5800 5800 5798 5798 5797 5797 5796 5796 5797 5797 5796 5796 5795 5796 5797 5798 5798 5799
5822 5821 5820 5820 5818 5817 5817 5816 5814 5813 5811 5809 5807 5806 5804 5803 5802 5801 5800 5798 5796 5794 5793 5791 5790 5789 5788 5788 5787 5787 5786 5786 5786 5787 5787 5787 5787 5787 5785 5785 5787 5788 5789
5817 5816 5815 5814 5813 5812 5810 5808 5807 5805 5803 5801 5799 5797 5795 5793 5792 5790 5788 5787 5784 5782 5780 5779 5778 5777 5776 5775 5775 5775 5775 5774 5774 5775 5775 5775 5776 5776 5777 5776 5776 5777 5778
5812 5811 5810 5808 5807 5805 5803 5801 5799 5797 5794 5791 5789 5787 5785 5782 5780 5778 5776 5773 5771 5769 5767 5765 5764 5762 5762 5762 5761 5762 5762 5762 5762 5761 5761 5761 5762 5763 5764 5765 5766 5764 5766
5806 5805 5803 5802 5800 5797 5795 5792 5789 5787 5784 5781 5779 5776 5773 5769 5766 5763 5761 5759 5756 5754 5752 5750 5749 5748 5747 5746 5746 5746 5747 5748 5748 5748 5748 5747 5749 5749 5750 5751 5751 5753 5753
5799 5798 5796 5793 5791 5788 5785 5782 5779 5776 5774 5771 5767 5763 5760 5756 5753 5749 5746 5743 5740 5738 5735 5733 5732 5732 5732 5731 5731 5732 5733 5733 5734 5734 5735 5735 5735 5735 5734 5736 5737 5738 5739
5790 5788 5786 5784 5781 5779 5776 5773 5770 5766 5762 5759 5755 5752 5748 5744 5740 5737 5734 5731 5728 5726 5723 5720 5718 5716 5715 5714 5715 5716 5718 5720 5719 5718 5719 5721 5721 5720 5721 5721 5721 5723 5724
5781 5779 5777 5774 5772 5770 5766 5763 5759 5755 5753 5750 5747 5743 5739 5735 5730 5727 5724 5721 5718 5715 5712 5709 5707 5705 5704 5703 5701 5701 5702 5704 5704 5704 5703 5704 5705 5705 5705 5706 5705 5705 5707
5772 5770 5768 5765 5763 5760 5756 5753 5751 5748 5744 5741 5737 5733 5728 5723 5718 5714 5711 5709 5706 5704 5701 5699 5696 5694 5693 5693 5691 5690 5690 5690 5690 5693 5691 5691 5690 5690 5690 5690 5689 5691 5691
5764 5762 5759 5756 5754 5752 5750 5747 5744 5740 5736 5733 5729 5724 5718 5710 5703 5699 5698 5696 5695 5692 5690 5688 5685 5683 5682 5682 5680 5678 5678 5677 5677 5677 5679 5678 5677 5675 5674 5674 5674 5674 5673
5755 5753 5752 5750 5748 5746 5743 5740 5737 5734 5731 5726 5722 5717 5710 5701 5692 5687 5686 5685 5683 5682 5679 5677 5675 5673 5672 5670 5668 5667 5666 5665 5664 5664 5664 5662 5662 5662 5660 5658 5656 5655 5653